Zurück zum Katalog

NOAA 16 DEB

AktivSSO
NORAD 41302·DEBRIS·🇺🇸 United States

Gestartet Sep 21, 2000 von Vandenberg Space Force Base

Loading…

Nächste Überflüge (nächste 24 Stunden)

TLE

AktuellSource: Space-Track

Epoche: Sep 13, 2026, 09:27 UTC

1 41302U 00055HE  26256.39408138  .00002332  00000-0  99220-3 0  9992
2 41302  98.7080 317.8653 0017647 308.5556  51.4042 14.26100952551584

Verfolge NOAA 16 DEB in Echtzeit mit AllMySat

Download on the App Store